COSMOS 249 DEB, 3609

Orbit data source: Space-Track

COSMOS 249 DEB, 3609 is space debris in LEO originally from a launch on Sun, 20 Oct 1968 UTC launched from the Tyuratam Missile And Space Complex (TTMTR). Debris objects in space refer to the collection of defunct objects orbiting the Earth. Examples of debris include non-operational satellites, rocket bodies, and fragments generated from explosions, collisions, or faulty payload assembly.

Loading next visibility...
Identifier
3609, 1968-091AB
Orbit
LEO
Country
Flag of CISCIS
Related business
Manufacturer
Unknown
Mission
Spacecraft
Bus & Motor
Unknown
Mass
Unknown
Launch date (UTC)
1968-10-20 (57 years ago)
Launch vehicle
Unknown
Launch site
Tyuratam Missile And Space Complex (TTMTR)
Object type
Payload
Rocket body
Debris
Shape & HBR
Unknown shape, 0.1 m
Radar Cross Section
Small (<0.1 m²)

Expand to show TLE details & history
Last TLE update: 6 hours ago

TLE from 6 hours ago
0 COSMOS 249 DEB
1 03609U 68091AB  26071.26768144  .00002186  00000-0  38920-3 0  9998
2 03609  62.2704  63.6526 0742171 111.7951 256.3691 13.65684884691658
Epoch: 2026-03-12T06:25Z
TLE epoch observation values (Epoch: 2026-03-12T06:25:27.676Z)
Latitude
-0.00004°
Longitude
157.36725°
Altitude
1,183.493 km
Speed
7.18 km/s
True Right ascension
04h 14m 36s
True Declination
0° 00' 00"
Sunlit
Object was in daylight at epoch
Visualization orbit readout
Latitude
Unknown
Longitude
Unknown
Altitude
Unknown
Speed
Unknown
Apparent Right ascension
Unknown
Apparent Declination
Unknown
Sunlit
N/A
Visualization observer readout
Local Sidereal Time
17:01:35
Azimuth
Unknown
Elevation
Unknown
Doppler factor
Unknown
Orbital elements
Apogee altitude
1,562.683 km
Perigee altitude
465.429 km
Semi-major axis
7,392.193 km
Eccentricity
0.07422
Inclination
62.2704°
RAAN
63.6526°
Arg. of periapsis
111.7951°
True anomaly
248.30757°
Mean anomaly
256.3691°
Eccentric anomaly
252.31767°
Mean motion
3.41494 °/min
Orbital period
105.42 mins
BSTAR
0.0003892

Documentation

Showing up to 5 results
|